Home > Time Zones > World Clock > Weather > China > Hefei > Past weeks

Flag for China Weather past 2 weeks in Hefei, Anhui, China

Now
36 °F

Overcast.


Feels Like: 33 °F
Forecast: 34 / 46 °F
Wind: 3 mph from Northwest

Location: Hefei Airport

Current Time: Mar 5, 2015 at 11:00:12 PM

Latest Report: Mar 5, 2015 at 10:00 PM


Visibility: 4 mi

Pressure: 30.33 "Hg

Humidity: 87%

Dew point: 32 °F

Location of HefeiLocation

Historic Weather in Hefei — Graph

°F

Hefei temperature yesterday

Maximum temperature yesterday: 43 °F (at 1:00 PM)
Minimum temperature yesterday: 36 °F (at 2:00 AM)
Average temperature yesterday: 39 °F

Past Weeks' High & Low Weather Summary

 TemperatureHumidityPressure
High57 °F (Mar 2, 3:00 PM)100% (Feb 20, 10:00 AM)30.42 "Hg (Feb 20, 10:00 AM)
Low32 °F (Feb 28, 10:00 AM)36% (Mar 2, 3:00 PM)29.86 "Hg (Mar 2, 5:00 PM)
Average43 °F78%30.17 "Hg
* Reported Feb 18 10:00 PM — Mar 5 10:00 PM, Hefei, Weather by CustomWeather, © 2015

Note: Actual official high and low records may vary slightly from our data, if they occured in-between our weather recording intervals... More about our weather records

Advertising

Hefei weather history for previous 24 hours

 ConditionsComfort  
Time TempWeatherWind HumidityBarometerVisibility
10:00 PM
Thu, Mar 5
36 °FOvercast.3 mph87%30.33 "Hg4 mi
9:00 PM37 °FOvercast.No wind75%30.30 "Hg5 mi
8:00 PM37 °FOvercast.No wind75%30.30 "Hg6 mi
7:00 PM37 °FOvercast.3 mph75%30.27 "Hg6 mi
6:00 PM37 °FPassing clouds.1 mph75%30.27 "Hg6 mi
5:00 PM37 °FLow clouds.6 mph75%30.27 "Hg5 mi
4:00 PM37 °FMore clouds than sun.6 mph81%30.30 "Hg4 mi
3:00 PM36 °FLight snow. Fog.6 mph87%30.27 "Hg3 mi
2:00 PM36 °FLight rain. Fog.6 mph93%30.30 "Hg3 mi
1:00 PM36 °FLight snow. Fog.6 mph87%30.33 "Hg3 mi
12:00 PM36 °FLight snow. Fog.8 mph81%30.33 "Hg2 mi
11:00 AM37 °FOvercast.10 mph65%30.33 "HgN/A
10:00 AM37 °FSunny.10 mph60%30.33 "Hg10 mi
9:00 AM37 °FSunny.10 mph56%30.36 "Hg10 mi
8:00 AM37 °FSunny.6 mph65%30.33 "Hg10 mi
6:00 AM36 °FClear.10 mph65%30.30 "Hg10 mi
5:00 AM36 °FClear.8 mph65%30.30 "Hg10 mi
4:00 AM36 °FClear.6 mph65%30.30 "Hg10 mi
3:00 AM37 °FClear.6 mph60%30.30 "Hg10 mi
2:00 AM37 °FClear.6 mph56%30.33 "Hg10 mi
1:00 AM37 °FClear.8 mph56%30.36 "Hg10 mi
12:00 AM37 °FClear.10 mph52%30.36 "Hg10 mi
11:00 PM
Wed, Mar 4
37 °FClear.10 mph52%30.36 "Hg10 mi
Weather by CustomWeather, © 2015

See weather overviewHow to use our weather pages